This is the latest recevied weather packets stored in our database for station/object N0HOT. If no packets are shown the sender has not sent any weather packets the latest 10 day(s).
| Time | Temp. | Humidity | Pressure | Rain* | Wind** | Luminosity | Snow |
|---|---|---|---|---|---|---|---|
| 1787949966 | 27.78° C | 42% | 1018.1 hPa | 0 mm | - | 225 W/m² | - |
| 1787949661 | 28.33° C | 43% | 1018.5 hPa | 0 mm | - | 356 W/m² | - |
| 1787949361 | 28.33° C | 37% | 1018.5 hPa | 0 mm | - | 318 W/m² | - |
| 1787949055 | 28.33° C | 40% | 1018.5 hPa | 0 mm | - | 295 W/m² | - |
| 1787948751 | 28.33° C | 41% | 1018.5 hPa | 0 mm | - | 485 W/m² | - |
| 1787948446 | 28.33° C | 39% | 1018.5 hPa | 0 mm | - | 367 W/m² | - |
| 1787948141 | 28.33° C | 39% | 1018.5 hPa | 0 mm | - | 375 W/m² | - |
| 1787947841 | 28.89° C | 40% | 1018.5 hPa | 0 mm | - | 474 W/m² | - |
| 1787947539 | 28.89° C | 44% | 1018.5 hPa | 0 mm | - | 502 W/m² | - |
| 1787947240 | 28.89° C | 40% | 1018.5 hPa | 0 mm | - | 435 W/m² | - |
| 1787946939 | 28.89° C | 40% | 1018.5 hPa | 0 mm | - | 536 W/m² | - |
| 1787946637 | 28.89° C | 36% | 1018.5 hPa | 0 mm | - | 404 W/m² | - |
| 1787946332 | 29.44° C | 38% | 1018.5 hPa | 0 mm | - | 613 W/m² | - |
| 1787946027 | 28.89° C | 37% | 1018.8 hPa | 0 mm | - | 701 W/m² | - |
| 1787945726 | 28.89° C | 39% | 1018.8 hPa | 0 mm | - | 666 W/m² | - |
| 1787945422 | 28.89° C | 39% | 1018.5 hPa | 0 mm | - | 688 W/m² | - |
| 1787945118 | 28.89° C | 37% | 1018.8 hPa | 0 mm | - | 694 W/m² | - |
| 1787944815 | 28.89° C | 38% | 1018.8 hPa | 0 mm | - | 681 W/m² | - |
| 1787944514 | 28.33° C | 38% | 1018.8 hPa | 0 mm | - | 656 W/m² | - |
| 1787944206 | 28.33° C | 38% | 1018.8 hPa | 0 mm | - | 635 W/m² | - |
| 1787943905 | 28.33° C | 40% | 1019.1 hPa | 0 mm | - | 634 W/m² | - |
| 1787943600 | 28.33° C | 38% | 1018.8 hPa | 0 mm | - | 725 W/m² | - |
| 1787943295 | 28.33° C | 41% | 1019.1 hPa | 0 mm | - | 704 W/m² | - |
| 1787942990 | 27.78° C | 44% | 1019.5 hPa | 0 mm | - | 727 W/m² | - |
| 1787942686 | 27.78° C | 42% | 1019.1 hPa | 0 mm | - | 713 W/m² | - |
* Rain latest hour (hover to see other rain measurements)
** Current wind speed in m/s (hover to see current wind gust speed)